STARLINK-4050, 53274

Orbit data source: Space-Track

STARLINK-4050, 53274 is a payload satellite owned by SpaceX/Seattle (US) in LEO that was launched on Sun, 24 Jul 2022 UTC via an FALCON 9 launch vehicle from the Air Force Eastern Test Range (AFETR). Payload-class satellites include a variety of spacecraft equipped with specific instruments for various scientific and technological missions. These include communications satellites like Starlink; space stations such as the ISS; scientific satellites like the Hubble; Earth observation satellites from companies like Planet Labs, Umbra, and HawkEye 360; GPS; miniature CubeSats for education and research; and military/defense satellites.

Loading next visibility...
Identifier
53274, 2022-086AJ
Orbit
LEO
Country
Flag of USUS
Related business
Manufacturer
SpaceX/Seattle
Mission
Operational Commercial Communications
Bus & Motor
STARLINK, Unknown motor
Mass
297 kg wet, ~275 kg dry
Launch date (UTC)
2022-07-24 (4 years ago)
Launch vehicle
FALCON 9
Launch site
Air Force Eastern Test Range (AFETR)
Object type
Payload
Rocket body
Debris
Shape & HBR
Box + 1 Pan, 10.1 m
Radar Cross Section
13.562 m², Large (>1 m²)

Expand to show TLE details & history
Last TLE update: 2 days ago

TLE from 2 days ago
0 STARLINK-4050
1 53274U 22086AJ  26171.41668980  .00002239  00000-0  13766-3 0  9990
2 53274  53.1599  82.7667 0002172  80.7468 166.4533 15.14197196  5722
Epoch: 2026-06-20T10:00Z
TLE epoch observation values (Epoch: 2026-06-20T10:00:01.998Z)
Latitude
-47.72521°
Longitude
-100.8328°
Altitude
541.219 km
Speed
7.591 km/s
True Right ascension
21h 11m 13s
True Declination
-47° 32' 55"
Sunlit
Object was in full shadow at epoch
Visualization orbit readout
Latitude
Unknown
Longitude
Unknown
Altitude
Unknown
Speed
Unknown
Apparent Right ascension
Unknown
Apparent Declination
Unknown
Sunlit
N/A
Visualization observer readout
Local Sidereal Time
23:08:36
Azimuth
Unknown
Elevation
Unknown
Doppler factor
Unknown
Orbital elements
Apogee altitude
525.171 km
Perigee altitude
522.173 km
Semi-major axis
6,901.809 km
Eccentricity
0.00022
Inclination
53.1599°
RAAN
82.7667°
Arg. of periapsis
80.7468°
True anomaly
166.45913°
Mean anomaly
166.4533°
Eccentric anomaly
166.45621°
Mean motion
3.78529 °/min
Orbital period
95.11 mins
BSTAR
0.00013766
Loading maneuver chart data...
Computing Atmospheric mass density...

Documentation

Showing up to 5 results
|